Location: Auckland
(36.8670°S, 174.7670°E)
Time: 10:12:35
(UTC+12:00)

Tiros 1 despin weight - Pass Details

Date: 23 July 2019
Orbit: 594 x 642 km, 48.2° (Epoch: 20 August)

Event Time Altitude Azimuth Distance (km) Brightness Sun altitude
Rises 21:42:49 0° 342° (NNW) 2,830 - -50.5°
Reaches altitude 10° 21:45:30 10° 357° (N) 1,931 - -51.0°
Maximum altitude 21:48:52 22° 47° (NE) 1,339 - -51.7°
Drops below altitude 10° 21:52:16 10° 97° (E) 1,943 - -52.3°
Sets 21:54:59 0° 112° (ESE) 2,853 - -52.9°
